Hourly Data Report for July 28, 2013

All times are specified in Local Standard Time (LST). Add 1 hour to adjust for Daylight Saving Time where and when it is observed.

VICTORIA INTL A
BRITISH COLUMBIA

48°38'50.000" N
123°25'33.000" W
19.50 m
1018621
71799
YYJ

Download Data

Hourly Data (July 2013)
Hourly Data Report for July 28, 2013
Temp Definition
°C
Dew Point Temp Definition
°C
Rel Hum Definition
%
Wind Dir Definition
10's deg

Wind Spd Definition
km/h
Visibility Definition
km
Stn Press Definition
kPa
Hmdx Definition


Wind Chill Definition


Weather Definition


TIME
00:00 Legend Double Dagger 12.4 9.8 84 22 2 48.3 101.35     LegendNANA
01:00 Legend Double Dagger 11.3 9.6 89 26 4 48.3 101.35     Clear
02:00 Legend Double Dagger 12.1 9.2 82 6 2 48.3 101.35     LegendNANA
03:00 Legend Double Dagger 11.3 10.1 92 12 4 48.3 101.34     LegendNANA
04:00 Legend Double Dagger 10.6 9.7 94 20 3 48.3 101.33     Mainly Clear
05:00 Legend Double Dagger 10.2 9.4 95 17 2 48.3 101.34     LegendNANA
06:00 Legend Double Dagger 12.1 10.7 91 15 3 48.3 101.37     LegendNANA
07:00 Legend Double Dagger 14.8 11.6 81 28 2 48.3 101.40     Mainly Clear
08:00 Legend Double Dagger 15.7 11.3 75 13 10 48.3 101.39     LegendNANA
09:00 Legend Double Dagger 17.1 11.4 69 13 11 48.3 101.38     LegendNANA
10:00 Legend Double Dagger 17.5 11.2 66 11 14 48.3 101.38     Clear
11:00 Legend Double Dagger 17.8 11.4 66 13 17 48.3 101.36     LegendNANA
12:00 Legend Double Dagger 17.8 11.4 66 13 18 48.3 101.33     LegendNANA
13:00 Legend Double Dagger 17.8 12.1 69 13 20 48.3 101.31     Clear
14:00 Legend Double Dagger 18.4 12.0 66 12 23 48.3 101.27     LegendNANA
15:00 Legend Double Dagger 18.4 12.0 66 13 27 48.3 101.23     LegendNANA
16:00 Legend Double Dagger 19.4 11.8 61 12 23 48.3 101.18     Clear
17:00 Legend Double Dagger 18.1 11.5 65 12 26 48.3 101.15     LegendNANA
18:00 Legend Double Dagger 18.1 11.3 64 13 22 48.3 101.12     LegendNANA
19:00 Legend Double Dagger 18.8 11.7 63 13 15 48.3 101.09     Clear
20:00 Legend Double Dagger 17.0 11.1 68 12 13 48.3 101.13     LegendNANA
21:00 Legend Double Dagger 14.3 11.5 83 7 13 48.3 101.16     LegendNANA
22:00 Legend Double Dagger 13.9 11.5 85 5 9 48.3 101.18     Clear
23:00 Legend Double Dagger 13.5 11.4 87 5 3 48.3 101.19     LegendNANA

Notes on Data Quality.

Legend

  • E = Estimated
  • M = Missing
  • NA = Not Available
  • ‡ = Partner data that is not subject to review by the National Climate Archives
Date modified: